Location: Augustenthal
(51.7167°N, 10.2833°E)
Time: 23:00:12
(UTC+00:00)

COSMOS 2487 - Pass Details

Date: 18 May 2021
Orbit: 431 x 433 km, 74.7° (Epoch: 24 June)

Event Time Altitude Azimuth Distance (km) Brightness Sun altitude
Rises 22:18:52 0° 338° (NNW) 2,419 7.8 -17.5°
Reaches altitude 10° 22:20:57 10° 341° (NNW) 1,546 6.4 -17.5°
Maximum altitude 22:24:20 68° 64° (ENE) 472 2.4 -17.7°
Enters shadow 22:25:07 47° 128° (SE) 581 2.6 -17.7°
